Regional Weather Roundup
Issued by NWS Jackson, KY

Home | Current Version | Previous Version | Graphics & Text | Print | Product List | Glossary On
Versions: 1 2 3 4 5 6 7 8 9 10 11 12 13 14 15 16 17 18 19 20 21 22 23 24 25 26 27 28
000
ASUS43 KJKL 201010
RWRJKL

EAST KENTUCKY HOURLY WEATHER ROUNDUP
NATIONAL WEATHER SERVICE JACKSON KY
500 AM EST TUE FEB 20 2018

NOTE: "FAIR" INDICATES FEW OR NO CLOUDS BELOW 12,000 FEET WITH
NO SIGNIFICANT WEATHER AND/OR OBSTRUCTIONS TO VISIBILITY.

* THESE REPORTS ARE NOT UNDER NWS QUALITY CONTROL AND MAY NOT
  REPORT WEATHER SUCH AS PRECIPITATION AND FOG.

KYZ079-080-083-085-087-088-110-112-115-119-120-201100
...EASTERN KENTUCKY...

CITY           SKY/WX    TMP DP  RH WIND       PRES   REMARKS
JACKSON          N/A     63  53  70 S9        30.23R
LONDON           N/A     62  54  74 S5        30.24R
SOMERSET*        N/A     63  54  72 MISG      30.24R
WILLIAMSBURG*    N/A     64  55  72 S8G16     30.25R
MIDDLESBORO*   MOCLDY    54  54 100 S7        30.29R
HARLAN APT*    CLOUDY    63  50  63 CALM      30.29R
PIKE CO APT*     N/A     61  51  70 S8        30.25S
BIG SANDY APT*   N/A     62  51  67 S8        30.24R
MOREHEAD APT*    N/A     64  54  68 S12G18    30.20S
ASHLAND*         N/A     51  48  89 CALM      30.20R
$$

KYZ035-036-041-042-044-050-067-078-099-201100
...CENTRAL KENTUCKY...

CITY           SKY/WX    TMP DP  RH WIND       PRES   REMARKS
MT STERLING*     N/A     63  55  77 CALM      30.20R
FLEMING/MASON*   N/A     61  55  80 S10       30.18R
DANVILLE*        N/A     61  54  77 S12G18    30.19R
LEXINGTON        N/A     64  55  72 S17G25    30.17R
FRANKFORT        N/A     65  54  67 S12G23    30.13R
LOUISVILLE     MOCLDY    68  57  68 S17G29    30.10S
LEBANON*         N/A     64  55  72 S16G24    30.16R
GLASGOW*         N/A     62  56  80 S9        30.17R
BOWLING GREEN    N/A     65  57  75 S12       30.15R
$$

KYZ091>093-OHZ055-061-077-WVZ005-015-034-035-042-201100
...SOUTHERN OHIO/WEST VIRGINIA...

CITY           SKY/WX    TMP DP  RH WIND       PRES   REMARKS
COVINGTON      MOCLDY    61  57  87 S12       30.10S
COLUMBUS       CLOUDY    61  55  81 S9        30.12S
DAYTON           N/A     62  57  83 S17       30.08S
WILMINGTON     CLOUDY    61  56  83 S14       30.12S
HUNTINGTON       N/A     63  50  62 S6        30.20R
CHARLESTON       N/A     65  51  60 S7        30.23R
BECKLEY          N/A     54  49  83 SE8       30.33R
BLUEFIELD        N/A     54  48  80 VRB6      30.35R
LOGAN CO APT*    N/A     64  52  63 S7        30.26S
$$

VAZ002-007-008-TNZ017-027-036-066-071-201100
...SOUTHWEST VIRGINIA/EAST TENNESSEE...

CITY           SKY/WX    TMP DP  RH WIND       PRES   REMARKS
WISE*            N/A     59  52  77 S14       30.33R
JONESVILLE*      N/A     46  46 100 CALM      30.33R
ABINGDON*        N/A     51  50  95 CALM      30.34R
BRISTOL          N/A     51  51 100 CALM      30.32R
MORRISTOWN*    PTSUNNY   52  50  93 CALM      30.30R
SEVIERVILLE*   SUNNY     48  46  93 CALM      30.29R
KNOXVILLE      MOCLDY    57  55  93 CALM      30.28R
LAFOLLETTE*    MOSUNNY   66  55  68 S16G24    30.30R
OAK RIDGE        N/A     57  57 100 VRB3      30.31R
CROSSVILLE       N/A     60  55  83 S9        30.29S
NASHVILLE        N/A     68  57  68 S15G28    30.18R
$$

...KEY TO REMARKS...
VSB - VISIBILITY IN MILES
WCI - WIND CHILL INDEX
HX  - HEAT INDEX

$$




USA.gov is the U.S. government's official web portal to all federal, state and local government web resources and services.